Weather History for KWWD - January, 2012

Change the Weather History Date:

Thursday, January 26, 2012

  Actual Average Record
Temperature  
Mean Temperature 42 °F -  
Max Temperature 48 °F 38 °F 53 °F (2002)
Min Temperature 35 °F 25 °F 15 °F (2004)
Degree Days  
Heating Degree Days 24    
Moisture  
Dew Point 37 °F    
Average Humidity 81    
Maximum Humidity 87    
Minimum Humidity 66    
Precipitation  
Precipitation 0.00 in - - ()
Sea Level Pressure  
Sea Level Pressure 30.14 in    
Wind  
Wind Speed 4 mph (East)    
Max Wind Speed 16 mph    
Max Gust Speed 22 mph    
Visibility 7 miles    
Events      
Averages and records for this station are not official NWS values.
T = Trace of Precipitation, MM = Missing Value Source: NWS Daily Summary

Daily Weather History Graph

Daily Weather History Graph

Search for Another Location

Airport or City:

Trip Planner

Search our weather history database for the weather conditions in past years. The results will help you decide how hot, cold, wet, or windy it might be!

Date:

Astronomy

Jan. 26, 2012 Rise Set
Actual Time 7:11 AM EST 5:13 PM EST
Civil Twilight 6:42 AM EST 5:41 PM EST
Nautical Twilight 6:10 AM EST 6:14 PM EST
Astronomical Twilight 5:38 AM EST 6:45 PM EST
Moon 8:39 AM EST (1/26) 9:01 PM EST (1/26)
Length of Visible Light 10h 59m
Length of Day
10h 01m
Waxing Crescent, 12% of the Moon is Illuminated
Jan 26
Waxing Crescent
Jan 30
First Quarter
Feb 7
Full
Feb 14
Last Quarter
Feb 21
New

Hourly Weather History & Observations

Time (EST) Temp. Windchill Dew Point Humidity Pressure Visibility Wind Dir Wind Speed Gust Speed Precip Events Conditions
12:15 AM 35.6 °F - 32.0 °F 87% 30.25 in 7.0 mi Calm Calm - N/A   Clear
12:35 AM 35.6 °F - 32.0 °F 87% 30.23 in 6.0 mi Calm Calm - N/A   Clear
12:55 AM 35.6 °F - 32.0 °F 87% 30.22 in 7.0 mi Calm Calm - N/A   Clear
1:15 AM 35.6 °F - 32.0 °F 87% 30.22 in 7.0 mi Calm Calm - N/A   Clear
1:35 AM 35.6 °F - 32.0 °F 87% 30.22 in 6.0 mi Calm Calm - N/A   Clear
1:55 AM 37.4 °F - 33.8 °F 87% 30.22 in 7.0 mi Calm Calm - N/A   Scattered Clouds
2:15 AM 37.4 °F - 33.8 °F 87% 30.22 in 6.0 mi Calm Calm - N/A   Overcast
2:35 AM 37.4 °F - 33.8 °F 87% 30.21 in 7.0 mi Calm Calm - N/A   Overcast
2:55 AM 37.4 °F - 33.8 °F 87% 30.22 in 7.0 mi Calm Calm - N/A   Overcast
3:15 AM 37.4 °F 34.9 °F 33.8 °F 87% 30.22 in 7.0 mi North 3.5 mph - N/A   Overcast
3:35 AM 37.4 °F 34.9 °F 33.8 °F 87% 30.23 in 7.0 mi NNE 3.5 mph - N/A   Overcast
3:55 AM 37.4 °F - 33.8 °F 87% 30.22 in 6.0 mi Calm Calm - N/A   Overcast
4:15 AM 37.4 °F 34.9 °F 33.8 °F 87% 30.22 in 6.0 mi NNE 3.5 mph - N/A   Overcast
4:35 AM 39.2 °F - 35.6 °F 87% 30.23 in 6.0 mi Calm Calm - N/A   Overcast
4:55 AM 39.2 °F - 35.6 °F 87% 30.23 in 6.0 mi Calm Calm - N/A   Overcast
5:15 AM 39.2 °F - 35.6 °F 87% 30.24 in 6.0 mi Calm Calm - N/A   Overcast
5:35 AM 39.2 °F 35.9 °F 35.6 °F 87% 30.22 in 6.0 mi East 4.6 mph - N/A   Overcast
5:55 AM 39.2 °F 35.9 °F 35.6 °F 87% 30.22 in 6.0 mi East 4.6 mph - N/A   Overcast
6:15 AM 39.2 °F 37.0 °F 35.6 °F 87% 30.22 in 6.0 mi East 3.5 mph - N/A   Overcast
6:35 AM 39.2 °F 37.0 °F 35.6 °F 87% 30.23 in 6.0 mi East 3.5 mph - N/A   Overcast
6:55 AM 39.2 °F 35.9 °F 35.6 °F 87% 30.21 in 6.0 mi ENE 4.6 mph - N/A   Overcast
7:15 AM 39.2 °F 35.9 °F 35.6 °F 87% 30.22 in 5.0 mi ENE 4.6 mph - N/A   Mostly Cloudy
7:35 AM 39.2 °F 35.0 °F 35.6 °F 87% 30.20 in 5.0 mi ENE 5.8 mph - N/A   Mostly Cloudy
7:55 AM 41.0 °F 37.1 °F 35.6 °F 81% 30.20 in 4.0 mi East 5.8 mph - N/A   Overcast
8:15 AM 41.0 °F 37.1 °F 37.4 °F 87% 30.20 in 4.0 mi East 5.8 mph - N/A   Mostly Cloudy
8:35 AM 42.8 °F 37.5 °F 37.4 °F 81% 30.18 in 5.0 mi ENE 9.2 mph - N/A   Mostly Cloudy
8:55 AM 42.8 °F 38.6 °F 35.6 °F 76% 30.19 in 6.0 mi ENE 6.9 mph - N/A   Overcast
9:15 AM 42.8 °F 38.6 °F 33.8 °F 70% 30.19 in 8.0 mi East 6.9 mph - N/A   Overcast
9:35 AM 42.8 °F 38.0 °F 33.8 °F 70% 30.20 in 7.0 mi East 8.1 mph - N/A   Overcast
9:55 AM 42.8 °F 38.0 °F 33.8 °F 70% 30.20 in 6.0 mi ENE 8.1 mph - N/A   Overcast
10:15 AM 42.8 °F 37.5 °F 33.8 °F 70% 30.20 in 6.0 mi East 9.2 mph - N/A   Overcast
10:35 AM 42.8 °F 37.5 °F 35.6 °F 76% 30.18 in 6.0 mi East 9.2 mph - N/A   Overcast
10:55 AM 42.8 °F 36.6 °F 35.6 °F 76% 30.17 in 6.0 mi East 11.5 mph - N/A   Overcast
11:15 AM 44.6 °F 38.8 °F 35.6 °F 71% 30.17 in 7.0 mi East 11.5 mph - N/A   Overcast
11:35 AM 44.6 °F 38.8 °F 35.6 °F 71% 30.15 in 7.0 mi East 11.5 mph - N/A   Overcast
11:55 AM 44.6 °F 39.2 °F 35.6 °F 71% 30.14 in 7.0 mi East 10.4 mph - N/A   Overcast
12:15 PM 44.6 °F 39.2 °F 35.6 °F 71% 30.12 in 8.0 mi East 10.4 mph 16.1 mph N/A   Overcast
12:35 PM 46.4 °F 40.7 °F 37.4 °F 71% 30.10 in 8.0 mi East 12.7 mph 16.1 mph N/A   Scattered Clouds
12:55 PM 46.4 °F 41.1 °F 37.4 °F 71% 30.09 in 8.0 mi ESE 11.5 mph - N/A   Partly Cloudy
1:15 PM 48.2 °F - 37.4 °F 66% 30.08 in 9.0 mi ESE 15.0 mph 21.9 mph N/A   Clear
1:35 PM 48.2 °F - 37.4 °F 66% 30.07 in 9.0 mi ESE 10.4 mph 17.3 mph N/A   Scattered Clouds
1:55 PM 48.2 °F - 39.2 °F 71% 30.06 in 9.0 mi ESE 16.1 mph - N/A   Mostly Cloudy
2:15 PM 48.2 °F - 39.2 °F 71% 30.04 in 9.0 mi ESE 16.1 mph 21.9 mph N/A   Scattered Clouds
2:35 PM 48.2 °F - 39.2 °F 71% 30.02 in 9.0 mi ESE 13.8 mph 19.6 mph N/A   Mostly Cloudy
2:55 PM 48.2 °F - 39.2 °F 71% 30.03 in 9.0 mi ESE 15.0 mph 18.4 mph N/A   Mostly Cloudy
3:35 PM 48.2 °F - 41.0 °F 76% 30.03 in 8.0 mi ESE 10.4 mph - N/A   Overcast
3:55 PM 48.2 °F - 41.0 °F 76% 30.02 in 8.0 mi ESE 9.2 mph 16.1 mph N/A   Overcast
4:15 PM 48.2 °F - 42.8 °F 82% 30.03 in 8.0 mi East 6.9 mph - N/A   Overcast
4:35 PM 48.2 °F - 42.8 °F 82% 30.02 in 7.0 mi East 5.8 mph - N/A   Overcast
4:55 PM 46.4 °F 42.9 °F 41.0 °F 81% 30.01 in 6.0 mi East 6.9 mph - N/A   Overcast
5:15 PM 46.4 °F 43.5 °F 41.0 °F 81% 30.01 in 5.0 mi ENE 5.8 mph - N/A   Overcast
5:35 PM 46.4 °F 43.5 °F 42.8 °F 87% 30.00 in 7.0 mi East 5.8 mph - N/A   Overcast
5:55 PM 48.2 °F - 42.8 °F 82% 29.99 in 7.0 mi East 6.9 mph - N/A   Mostly Cloudy
6:15 PM 48.2 °F - 42.8 °F 82% 29.98 in 7.0 mi East 8.1 mph - N/A   Mostly Cloudy
6:35 PM 48.2 °F - 44.6 °F 87% 29.97 in 8.0 mi ESE 10.4 mph - N/A   Mostly Cloudy
6:55 PM 48.2 °F - 44.6 °F 87% 29.97 in 7.0 mi SE 9.2 mph - N/A   Mostly Cloudy
7:15 PM 48.2 °F - 44.6 °F 87% 29.96 in 7.0 mi SE 6.9 mph - N/A   Mostly Cloudy
7:35 PM 48.2 °F - 44.6 °F 87% 29.96 in 6.0 mi SE 6.9 mph - N/A   Partly Cloudy
7:55 PM 48.2 °F - 44.6 °F 87% 29.95 in 6.0 mi SE 9.2 mph - N/A   Mostly Cloudy
8:15 PM 50.0 °F - 46.4 °F 87% 29.94 in 10.0 mi SSE 12.7 mph - N/A   Mostly Cloudy
8:35 PM 51.8 °F - 46.4 °F 82% 29.93 in 10.0 mi SSE 15.0 mph 19.6 mph N/A   Mostly Cloudy
8:55 PM 51.8 °F - 46.4 °F 82% 29.92 in 10.0 mi SSE 16.1 mph 20.7 mph N/A   Mostly Cloudy
9:35 PM 51.8 °F - 48.2 °F 88% 29.89 in 10.0 mi SSE 15.0 mph 19.6 mph N/A   Mostly Cloudy
9:55 PM 51.8 °F - 48.2 °F 88% 29.89 in 10.0 mi SSE 13.8 mph - N/A   Mostly Cloudy
10:15 PM 51.8 °F - 48.2 °F 88% 29.88 in 10.0 mi South 12.7 mph - N/A   Partly Cloudy
10:35 PM 51.8 °F - 48.2 °F 88% 29.86 in 10.0 mi South 13.8 mph - N/A   Scattered Clouds
10:55 PM 51.8 °F - 48.2 °F 88% 29.85 in 10.0 mi South 11.5 mph - N/A   Partly Cloudy
11:15 PM 51.8 °F - 48.2 °F 88% 29.84 in 10.0 mi South 13.8 mph - N/A   Mostly Cloudy
11:35 PM 51.8 °F - 48.2 °F 88% 29.82 in 10.0 mi South 10.4 mph - N/A   Scattered Clouds
11:55 PM 51.8 °F - 48.2 °F 88% 29.80 in 10.0 mi SSE 9.2 mph - N/A   Clear